Weather History for KBJC - November, 2011

Change the Weather History Date:

Sunday, November 27, 2011

  Actual Average Record
Temperature  
Mean Temperature 42 °F -  
Max Temperature 59 °F 47 °F 73 °F (1998)
Min Temperature 26 °F 27 °F 8 °F (2001)
Degree Days  
Heating Degree Days 22    
Moisture  
Dew Point 2 °F    
Average Humidity 21    
Maximum Humidity 43    
Minimum Humidity 10    
Precipitation  
Precipitation 0.00 in - - ()
Sea Level Pressure  
Sea Level Pressure 30.30 in    
Wind  
Wind Speed 7 mph (WNW)    
Max Wind Speed 26 mph    
Max Gust Speed 33 mph    
Visibility 11 miles    
Events      
Averages and records for this station are not official NWS values.
T = Trace of Precipitation, MM = Missing Value Source: NWS Daily Summary

Daily Weather History Graph

Daily Weather History Graph

Search for Another Location

Airport or City:

Trip Planner

Search our weather history database for the weather conditions in past years. The results will help you decide how hot, cold, wet, or windy it might be!

Date:

Astronomy

Nov. 27, 2011 Rise Set
Actual Time 6:58 AM MST 4:37 PM MST
Civil Twilight 6:28 AM MST 5:07 PM MST
Nautical Twilight 5:55 AM MST 5:40 PM MST
Astronomical Twilight 5:22 AM MST 6:12 PM MST
Moon 9:25 AM MST 7:18 PM MST
Length of Visible Light 10h 38m
Length of Day
9h 38m
Waxing Crescent, 9% of the Moon is Illuminated
Nov 27
Waxing Crescent
Dec 2
First Quarter
Dec 10
Full
Dec 17
Last Quarter
Dec 24
New

Hourly Weather History & Observations

Time (MST) Temp. Windchill Dew Point Humidity Pressure Visibility Wind Dir Wind Speed Gust Speed Precip Events Conditions
12:05 AM 30.2 °F 26.7 °F 3.2 °F 32% 30.43 in 10.0 mi WSW 3.5 mph - N/A   Clear
12:26 AM 32.0 °F - 1.4 °F 27% 30.42 in 10.0 mi Calm Calm - N/A   Clear
12:46 AM 35.6 °F - -4.0 °F 18% 30.41 in 10.0 mi Calm Calm - N/A   Clear
1:06 AM 32.0 °F - -0.4 °F 25% 30.41 in 10.0 mi Calm Calm - N/A   Clear
1:26 AM 32.0 °F 25.6 °F 3.2 °F 30% 30.41 in 10.0 mi North 6.9 mph - N/A   Clear
1:46 AM 30.2 °F 22.6 °F 3.2 °F 32% 30.41 in 10.0 mi NNW 8.1 mph - N/A   Clear
2:06 AM 28.4 °F 19.7 °F 3.2 °F 34% 30.40 in 10.0 mi NW 9.2 mph - N/A   Clear
2:26 AM 30.2 °F 25.4 °F 1.4 °F 29% 30.39 in 10.0 mi WNW 4.6 mph - N/A   Clear
2:46 AM 32.0 °F 28.7 °F -0.4 °F 25% 30.39 in 10.0 mi WNW 3.5 mph - N/A   Clear
3:06 AM 32.0 °F - -0.4 °F 25% 30.39 in 10.0 mi Calm Calm - N/A   Clear
3:26 AM 32.0 °F - -0.4 °F 25% 30.39 in 10.0 mi Calm Calm - N/A   Clear
3:46 AM 30.2 °F 25.4 °F 1.4 °F 29% 30.38 in 10.0 mi ENE 4.6 mph - N/A   Clear
4:06 AM 30.2 °F 25.4 °F 3.2 °F 32% 30.39 in 10.0 mi NNE 4.6 mph - N/A   Clear
4:26 AM 28.4 °F - 5.0 °F 37% 30.38 in 10.0 mi Calm Calm - N/A   Clear
4:46 AM 26.6 °F 22.6 °F 6.8 °F 43% 30.37 in 10.0 mi WSW 3.5 mph - N/A   Clear
5:49 AM 28.4 °F 24.6 °F 5.0 °F 37% 30.36 in 20.0 mi SW 3.5 mph - N/A   Clear
6:59 AM 32.0 °F 27.5 °F -0.4 °F 25% 30.35 in 50.0 mi SW 4.6 mph - N/A   Clear
7:45 AM 35.6 °F 31.7 °F 1.4 °F 24% 30.35 in 50.0 mi WSW 4.6 mph - N/A   Clear
8:50 AM 32.0 °F 26.4 °F 6.8 °F 35% 30.36 in 50.0 mi NNW 5.8 mph - N/A   Clear
9:46 AM 39.2 °F 37.0 °F 8.6 °F 28% 30.35 in 50.0 mi SSE 3.5 mph - N/A   Clear
10:53 AM 46.4 °F - 5.0 °F 18% 30.33 in 50.0 mi Calm Calm - N/A   Clear
11:46 AM 53.6 °F - 3.2 °F 13% 30.30 in 50.0 mi Variable 3.5 mph - N/A   Clear
12:47 PM 57.2 °F - 5.0 °F 12% 30.28 in 50.0 mi Variable 3.5 mph - N/A   Partly Cloudy
2:17 PM 57.2 °F - 5.0 °F 12% 30.23 in 50.0 mi WNW 16.1 mph 23.0 mph N/A   Clear
3:52 PM 59.0 °F - 3.2 °F 11% 30.22 in 50.0 mi West 19.6 mph - N/A   Partly Cloudy
4:46 PM 55.4 °F - 3.2 °F 12% 30.22 in 50.0 mi West 26.5 mph 33.4 mph N/A   Partly Cloudy
5:45 PM 55.4 °F - 6.8 °F 14% 30.22 in 50.0 mi West 25.3 mph - N/A   Partly Cloudy
6:46 PM 55.4 °F - 3.2 °F 12% 30.22 in 20.0 mi West 17.3 mph - N/A   Clear
7:46 PM 55.4 °F - 1.4 °F 11% 30.20 in 30.0 mi WNW 26.5 mph - N/A   Clear
8:47 PM 55.4 °F - 1.4 °F 11% 30.17 in 30.0 mi West 21.9 mph - N/A   Clear
9:45 PM 57.2 °F - 3.2 °F 11% 30.16 in 30.0 mi West 23.0 mph 28.8 mph N/A   Clear
10:05 PM 55.4 °F - 1.4 °F 11% 30.16 in 10.0 mi WNW 24.2 mph 29.9 mph N/A   Clear
10:26 PM 55.4 °F - 1.4 °F 11% 30.15 in 10.0 mi WNW 21.9 mph - N/A   Clear
10:46 PM 55.4 °F - 1.4 °F 11% 30.15 in 10.0 mi WNW 23.0 mph 26.5 mph N/A   Clear
11:06 PM 55.4 °F - -0.4 °F 10% 30.15 in 10.0 mi WNW 19.6 mph - N/A   Clear
11:26 PM 57.2 °F - -0.4 °F 10% 30.15 in 10.0 mi WNW 23.0 mph 27.6 mph N/A   Clear
11:46 PM 57.2 °F - -0.4 °F 10% 30.15 in 10.0 mi WNW 24.2 mph 31.1 mph N/A   Clear